Find Starlink 34129

NORAD ID: 64138 Int'l Des: 2025-111 Owner: SPXS Country: US Constellation: starlink operational
LEOCIRCULAR

当前视图

正在加载3D地球...

About Starlink 34129

Starlink 34129 (NORAD 64138) is a starlink constellation satellite (v2 mini) launched May 24, 2025 by SPXS of US. It operates in LEO, CIRCULAR orbit with a mass of 575.00 kg.

即将过境

Passes for default location (London). Set your location on the main map for personalized predictions.

高度历史

Loading altitude history...

两行轨道根数

1 64138U 25111R 26237.92769316 .00026923 00000-0 98396-3 0 9995
2 64138 42.9985 202.3165 0000800 259.8329 100.2432 15.27592119 71390
Epoch: Aug 25, 2026 • Age: 16 hours

当前状态

高度 486.4 km
远地点 / 近地点 N/A
速度 7.63 km/s
星下点 42.21°N, 112.41°E
发射日期 May 24, 2025
运行时间 1.2 years
类型 internet

技术详情

分类 Payload
质量 575.00 kg
干质量 530.00 kg
总质量 575.00 kg
长度 0.30 m
直径 4.10 m
跨度 29.00 m
形状 Box + pan
制造商 SPXS
平台类型 Starlink V2MO
阶段状态 In Orbit
所有者/国家 SPXS/US

Most Searched